STARLINK-11585, 63309

Orbit data source: Space-Track

STARLINK-11585, 63309 is a payload satellite owned by SpaceX/Seattle (US) in LEO that was launched on Tue, 18 Mar 2025 UTC via an FALCON 9 launch vehicle from the Air Force Eastern Test Range (AFETR). Payload-class satellites include a variety of spacecraft equipped with specific instruments for various scientific and technological missions. These include communications satellites like Starlink; space stations such as the ISS; scientific satellites like the Hubble; Earth observation satellites from companies like Planet Labs, Umbra, and HawkEye 360; GPS; miniature CubeSats for education and research; and military/defense satellites.

Loading next visibility...
Identifier
63309, 2025-057C
Orbit
LEO
Country
Flag of USUS
Related business
Manufacturer
SpaceX/Seattle
Mission
Operational Commercial Communications
Bus & Motor
STARLINK V2MD, Unknown motor
Mass
960 kg wet, ~910 kg dry
Launch date (UTC)
2025-03-18 (6 months ago)
Launch vehicle
FALCON 9
Launch site
Air Force Eastern Test Range (AFETR)
Object type
Payload
Rocket body
Debris
Shape & HBR
Box + 2 Pan, 14.5 m
Radar Cross Section
36.964 m², Large (>1 m²)

Expand to show TLE details & history
Last TLE update: 2 days ago

TLE from 2 days ago
0 STARLINK-11585
1 63309U 25057C   25259.30674369  .00130958  00000-0  10073-2 0  9990
2 63309  42.9998 235.4817 0002029 267.8029  92.2607 15.70857432 29785
Epoch: 2025-09-16T07:21Z
TLE epoch observation values (Epoch: 2025-09-16T07:21:42.654Z)
Latitude
0.00001°
Longitude
129.55506°
Altitude
356.271 km
Speed
7.697 km/s
True Right ascension
15h 41m 55s
True Declination
0° 00' 00"
Sunlit
Object was in daylight at epoch
Visualization orbit readout
Latitude
Unknown
Longitude
Unknown
Altitude
Unknown
Speed
Unknown
Apparent Right ascension
Unknown
Apparent Declination
Unknown
Sunlit
N/A
Visualization observer readout
Local Sidereal Time
16:08:09
Azimuth
Unknown
Elevation
Unknown
Doppler factor
Unknown
Orbital elements
Apogee altitude
359.794 km
Perigee altitude
357.06 km
Semi-major axis
6,736.564 km
Eccentricity
0.0002
Inclination
42.9998°
RAAN
235.4817°
Arg. of periapsis
267.8029°
True anomaly
92.28393°
Mean anomaly
92.2607°
Eccentric anomaly
92.27232°
Mean motion
3.92541 °/min
Orbital period
91.71 mins
BSTAR
0.0010073
Loading maneuver chart data...
Computing Atmospheric mass density...
Loading historical data...
Loading historical data...
Loading historical data...
Loading historical data...
Loading historical data...
Loading historical data...
Loading historical data...

Documentation

Showing up to 5 results
|